Date String (YYYY-MM-DD hh:mm:ss) UTC,Instrument flags,absolute air pressure of the measurement (hPa),sample flow rate (lpm),inlet stack bypass flow (lpm),air temperature of the measurement (°C),ambient temperature measured by the external sensor (°C),aerosol sample conditioner tube jacket temperature (°C),OPC LED temperature (°C),internal box temperature (°C),relative humidity of the measurement (%),span deviation,mass concentration of particles derived from Lorenz-Mie calculation of OPC scattering (μg/m³),mass concentration of particles derived from Lorenz-Mie calculation of OPC scattering (μg/m³),mass concentration of particles derived from Lorenz-Mie calculation of OPC scattering (μg/m³)
DateTimeUTC,F1_M11,P_M11,Q1_M11,Q2_M11,T1_M11,T2_M11,T3_M11,T4_M11,T5_M11,U1_M11,ZSPAN_M11,X0_M11,X2_M11,X1_M11
2023-11-08 03:00:00,SystemResetWarning,0824.7,5.00,000.00,028.1,027.1,000.0,036.3,029.6,14.7,0000.0,0014.19,0003.64,0001.89
2023-11-08 03:01:00,SystemResetWarning,0824.8,5.00,000.00,028.1,027.1,000.0,036.4,029.6,14.7,0000.0,0014.24,0003.60,0001.86
2023-11-08 03:02:00,SystemResetWarning,0824.8,4.99,000.00,028.1,027.1,000.0,036.4,029.5,14.7,0000.0,0014.10,0003.59,0001.87
2023-11-08 03:03:00,SystemResetWarning,0824.8,5.00,000.00,028.1,027.1,000.0,036.4,029.6,14.7,0000.0,0013.70,0003.64,0001.88
2023-11-08 03:04:00,SystemResetWarning,0824.8,5.00,000.00,028.1,027.1,000.0,036.4,029.6,14.7,0000.0,0012.56,0003.61,0001.87
2023-11-08 03:05:00,SystemResetWarning,0824.7,5.00,000.00,028.1,027.2,000.0,036.4,029.6,14.7,0000.0,0012.53,0003.55,0001.85
2023-11-08 03:06:00,SystemResetWarning,0824.8,5.00,000.00,028.1,027.2,000.0,036.4,029.6,14.6,0000.0,0012.21,0003.54,0001.83
2023-11-08 03:07:00,SystemResetWarning,0824.7,5.00,000.00,028.1,027.2,000.0,036.4,029.6,14.6,0000.0,0012.26,0003.58,0001.80
2023-11-08 03:08:00,SystemResetWarning,0824.7,5.00,000.00,028.2,027.2,000.0,036.4,029.7,14.6,0000.0,0013.57,0003.58,0001.77
2023-11-08 03:09:00,SystemResetWarning,0824.8,5.00,000.00,028.2,027.3,000.0,036.4,029.7,14.7,0000.0,0014.29,0003.60,0001.72
2023-11-08 03:10:00,SystemResetWarning,0824.7,5.00,000.00,028.2,027.3,000.0,036.5,029.7,14.6,0000.0,0014.18,0003.60,0001.71
2023-11-08 03:11:00,SystemResetWarning,0824.7,5.00,000.00,028.2,027.3,000.0,036.5,029.7,14.6,0000.0,0013.83,0003.58,0001.69
2023-11-08 03:12:00,SystemResetWarning,0824.7,5.00,000.00,028.2,027.3,000.0,036.5,029.7,14.6,0000.0,0012.99,0003.57,0001.68
2023-11-08 03:13:00,SystemResetWarning,0824.7,5.00,000.00,028.2,027.3,000.0,036.5,029.7,14.6,0000.0,0012.77,0003.55,0001.64
2023-11-08 03:14:00,SystemResetWarning,0824.8,5.00,000.00,028.2,027.4,000.0,036.5,029.7,14.6,0000.0,0012.50,0003.45,0001.62
2023-11-08 03:15:00,SystemResetWarning,0824.8,5.00,000.00,028.2,027.4,000.0,036.5,029.7,14.6,0000.0,0012.11,0003.39,0001.61
2023-11-08 03:16:00,SystemResetWarning,0824.7,5.00,000.00,028.3,027.4,000.0,036.5,029.8,14.6,0000.0,0011.97,0003.38,0001.60
2023-11-08 03:17:00,SystemResetWarning,0824.8,5.00,000.00,028.3,027.4,000.0,036.6,029.8,14.6,0000.0,0012.25,0003.37,0001.59
2023-11-08 03:18:00,SystemResetWarning,0824.8,5.00,000.00,028.3,027.4,000.0,036.6,029.8,14.6,0000.0,0012.09,0003.29,0001.57
2023-11-08 03:19:00,SystemResetWarning,0824.8,4.99,000.00,028.3,027.5,000.0,036.6,029.8,14.6,0000.0,0010.83,0003.25,0001.57
2023-11-08 03:20:00,SystemResetWarning,0824.8,4.99,000.00,028.3,027.5,000.0,036.6,029.8,14.5,0000.0,0010.47,0003.22,0001.56
2023-11-08 03:21:00,SystemResetWarning,0824.7,5.00,000.00,028.3,027.4,000.0,036.6,029.8,14.5,0000.0,0010.01,0003.16,0001.55
2023-11-08 03:22:00,SystemResetWarning,0824.8,4.99,000.00,028.3,025.5,000.0,036.6,029.7,14.5,0000.0,0010.30,0003.09,0001.52
2023-11-08 03:23:00,SystemResetWarning,0824.7,5.00,000.00,028.2,024.0,000.0,036.5,029.4,14.6,0000.0,0010.31,0003.02,0001.50
2023-11-08 03:24:00,SystemResetWarning,0824.7,5.01,000.00,028.1,023.9,000.0,036.4,029.0,14.7,0000.0,0010.16,0002.89,0001.50
2023-11-08 03:25:00,SystemResetWarning,0824.8,5.01,000.00,027.9,024.3,000.0,036.4,028.7,14.9,0000.0,0010.44,0002.94,0001.48
2023-11-08 03:26:00,SystemResetWarning,0824.8,5.00,000.00,027.8,024.7,000.0,036.3,028.8,14.9,0000.0,0010.79,0003.08,0001.47
2023-11-08 03:27:00,SystemResetWarning,0824.9,5.00,000.00,027.7,025.1,000.0,036.3,028.9,15.0,0000.0,0011.63,0003.03,0001.45
2023-11-08 03:28:00,SystemResetWarning,0824.9,5.00,000.00,027.7,025.5,000.0,036.3,028.9,15.0,0000.0,0011.84,0002.93,0001.43
2023-11-08 03:29:00,SystemResetWarning,0824.9,5.00,000.00,027.7,025.7,000.0,036.2,029.0,15.0,0000.0,0011.77,0002.91,0001.43
2023-11-08 03:30:00,SystemResetWarning,0824.9,5.00,000.00,027.7,026.0,000.0,036.2,029.1,15.0,0000.0,0012.43,0002.90,0001.42
2023-11-08 03:31:00,SystemResetWarning,0824.9,4.99,000.00,027.7,026.2,000.0,036.2,029.1,15.0,0000.0,0011.89,0002.86,0001.42
2023-11-08 03:32:00,SystemResetWarning,0824.9,5.00,000.00,027.7,026.3,000.0,036.2,029.2,15.0,0000.0,0011.78,0002.84,0001.42
2023-11-08 03:33:00,SystemResetWarning,0824.9,5.00,000.00,027.7,026.4,000.0,036.2,029.2,15.0,0000.0,0011.40,0002.85,0001.42
2023-11-08 03:34:00,SystemResetWarning,0824.8,5.00,000.00,027.7,026.5,000.0,036.2,029.2,15.0,0000.0,0011.01,0002.88,0001.41
2023-11-08 03:35:00,SystemResetWarning,0824.8,5.00,000.00,027.7,026.6,000.0,036.1,029.2,14.9,0000.0,0011.45,0002.93,0001.41
2023-11-08 03:36:00,SystemResetWarning,0824.8,5.00,000.00,027.8,026.7,000.0,036.1,029.3,14.9,0000.0,0011.59,0002.89,0001.41
2023-11-08 03:37:00,SystemResetWarning,0824.8,4.98,000.00,027.8,026.8,000.0,036.1,029.3,14.9,0000.0,0012.39,0002.80,0001.40
2023-11-08 03:38:00,SystemResetWarning,0824.9,4.98,000.00,027.8,026.8,000.0,036.1,029.3,14.8,0000.0,0011.78,0002.74,0001.39
2023-11-08 03:39:00,SystemResetWarning,0824.9,5.00,000.00,027.8,026.8,000.0,036.2,029.3,14.8,0000.0,0010.76,0002.79,0001.38
2023-11-08 03:40:00,SystemResetWarning,0824.9,5.00,000.00,027.8,026.9,000.0,036.2,029.4,14.8,0000.0,0010.93,0002.81,0001.37
2023-11-08 03:41:00,SystemResetWarning,0824.9,5.01,000.00,027.9,026.9,000.0,036.2,029.4,14.8,0000.0,0011.07,0002.80,0001.36
2023-11-08 03:42:00,SystemResetWarning,0824.9,5.01,000.00,027.9,026.9,000.0,036.2,029.4,14.8,0000.0,0011.38,0002.79,0001.35
2023-11-08 03:43:00,SystemResetWarning,0824.9,4.99,000.00,027.9,026.9,000.0,036.2,029.4,14.7,0000.0,0011.31,0002.80,0001.34
2023-11-08 03:44:00,SystemResetWarning,0824.9,4.99,000.00,027.9,027.0,000.0,036.2,029.4,14.7,0000.0,0011.17,0002.76,0001.33
2023-11-08 03:45:00,SystemResetWarning,0824.9,5.01,000.00,027.9,027.0,000.0,036.2,029.4,14.7,0000.0,0011.61,0002.76,0001.32
2023-11-08 03:46:00,SystemResetWarning,0824.9,5.01,000.00,027.9,027.0,000.0,036.2,029.4,14.6,0000.0,0011.34,0002.78,0001.33
2023-11-08 03:47:00,SystemResetWarning,0824.9,5.01,000.00,028.0,027.0,000.0,036.2,029.5,14.6,0000.0,0010.93,0002.78,0001.32
2023-11-08 03:48:00,SystemResetWarning,0824.9,5.00,000.00,028.0,027.1,000.0,036.3,029.5,14.6,0000.0,0010.17,0002.73,0001.31
2023-11-08 03:49:00,SystemResetWarning,0824.8,5.00,000.00,028.0,027.1,000.0,036.3,029.5,14.6,0000.0,0010.21,0002.71,0001.30
2023-11-08 03:50:00,SystemResetWarning,0824.8,4.99,000.00,028.0,027.1,000.0,036.3,029.5,14.6,0000.0,0010.27,0002.64,0001.29
2023-11-08 03:51:00,SystemResetWarning,0824.8,5.01,000.00,028.0,027.1,000.0,036.3,029.5,14.6,0000.0,0010.06,0002.62,0001.28
2023-11-08 03:52:00,SystemResetWarning,0824.8,5.01,000.00,028.0,027.2,000.0,036.3,029.5,14.6,0000.0,0009.89,0002.62,0001.28
2023-11-08 03:53:00,SystemResetWarning,0824.7,5.01,000.00,028.1,027.2,000.0,036.3,029.5,14.5,0000.0,0009.16,0002.61,0001.29
2023-11-08 03:54:00,SystemResetWarning,0824.7,5.01,000.00,028.1,027.2,000.0,036.3,029.5,14.5,0000.0,0009.11,0002.59,0001.28
2023-11-08 03:55:00,SystemResetWarning,0824.7,5.00,000.00,028.1,027.2,000.0,036.4,029.6,14.5,0000.0,0009.53,0002.54,0001.27
2023-11-08 03:56:00,SystemResetWarning,0824.7,4.99,000.00,028.1,027.2,000.0,036.4,029.6,14.4,0000.0,0009.03,0002.45,0001.26
2023-11-08 03:57:00,SystemResetWarning,0824.7,5.00,000.00,028.1,027.2,000.0,036.4,029.6,14.4,0000.0,0009.50,0002.34,0001.25
2023-11-08 03:58:00,SystemResetWarning,0824.7,5.01,000.00,028.1,027.2,000.0,036.4,029.6,14.4,0000.0,0009.60,0002.31,0001.25
2023-11-08 03:59:00,SystemResetWarning,0824.7,5.01,000.00,028.1,027.2,000.0,036.4,029.6,14.5,0000.0,0009.70,0002.30,0001.24
